SCP
0 0 0 0 0 0 0 0 0 0 0 0 0 0 0 0 0 0 0 0 0 0 0 0 0 0 0 0 0 0 0 0 0 0 0 0 0 0 0 0 0 0 0 0 0
0 0 0 0 0 0 0 0 0 0 0 0 0 0 0 0 0 0 0 0 0 0 0 0 0 0 0 0 0 0 0 0 0 0 0 0 0 0 0 0 0 0 0 0 0
0 0 0 0 0 0 0 0 0 0 0 0 0 0 0 0 0 0 0 0 0 0 0 0 0 0 0 0 0 0 0 0 0 0 0 0 0 0 0 0 0 0 0 0 0
0 0 0 0 0 0 0 0 0 0 0 0 0 0 0 0 0 0 0 0 0 0 0 0 0 0 0 0 0 0 0 0 0 0 0 0 0 0 0 0 0 0 0 0 0
0 0 0 0 0 0 0 0 0 0 0 0 0 0 0 0 0 0 0 0 0 0 0 0 0 0 0 0 0 0 0 0 0 0 0 0 0 0 0 0 0 0 0 0 0
0 0 0 0 0 0 0 0 0 0 0 0 0 0 0 0 0 0 0 0 0 0 0 0 0 0 0 0 0 0 0 0 0 0 0 0 0 0 0 0 0 0 0 0 0
0 0 0 0 0 0 0 0 0 0 0 0 0 0 0 0 0 0 0 0 0 0 0 0 0 0 0 0 0 0 0 0 0 0 0 0 0 0 0 0 0 0 0 0 0
0 0 0 0 0 0 0 0 0 0 0 0 0 0 0 0 0 0 0 0 0 0 0 0 0 0 0 0 0 0 0 0 0 0 0 0 0 0 0 0 0 0 0 0 0
0 0 0 0 0 0 0 0 0 0 0 0 0 0 0 0 0 0 0 0 0 0 0 0 0 0 0 0 0 0 0 0 0 0 0 0 0 0 0 0 0 0 0 0 0
0 0 0 0 0 0 0 0 0 0 0 0 0 0 0 0 0 0 0 0 0 0 0 0 0 0 0 0 0 0 0 0 0 0 0 0 0 0 0 0 0 0 0 0 0
0 0 0 0 0 0 0 0 0 0 0 0 0 0 0 0 0 0 0 0 0 0 0 0 0 0 0 0 0 0 0 0 0 0 0 0 0 0 0 0 0 0 0 0 0
0 0 0 0 0 0 0 0 0 0 0 0 0 0 0 0 0 0 0 0 0 0 0 0 0 0 0 0 0 0 0 0 0 0 0 0 0 0 0 0 0 0 0 0 0
0 0 0 0 0 0 0 0 0 0 0 0 0 0 0 0 0 0 0 0 0 0 0 0 0 0 0 0 0 0 0 0 0 0 0 0 0 0 0 0 0 0 0 0 0
0 0 0 0 0 0 0 0 0 0 0 0 0 0 0 0 0 0 0 0 0 0 0 0 0 0 0 0 0 0 0 0 0 0 0 0 0 0 0 0 0 0 0 0 0
-0 -0 0 0 0 0 0 0 0 0 0 0 0 0 0 0 0 0 0 0 0 0 0 0 0 0 0 0 0 0 0 0 0 0 0 0 0 0 0 0 0 0 0 0 0
-0 -0 0 -0 0 0 0 0 0 0 0 0 0 0 0 0 0 0 0 0 0 0 0 0 0 0 0 0 0 0 0 0 0 0 0 0 0 0 0 0 0 0 0 0 0
0 -0 0 0 0 0 0 0 0 0 0 0 0 0 0 0 0 0 0 0 0 0 0 0 0 0 0 0 0 0 0 0 0 0 0 0 0 0 0 0 0 0 0 0 0
0 0 0 0 0 0 0 -0 0 0 0 0 0 0 0 0 0 0 0 0 0 0 0 0 0 0 0 0 0 0 0 0 0 0 0 0 0 0 0 0 0 0 0 0 0
0 0 0 0 0 0 0 -0 0 0 0 0 0 0 0 0 0 0 0 0 0 0 0 0 0 0 0 0 0 0 0 0 0 0 0 0 0 0 0 0 0 0 0 0 0
0 0 0 0 0 0 0 0 -0 0 0 0 0 0 0 0 0 0 0 0 0 0 0 0 0 0 0 0 0 0 0 0 0 0 0 0 0 0 0 0 0 0 0 0 0
0 0 0 0 0 0 0 0 0 0 0 0 0 0 0 0 0 0 0 0 0 0 0 0 0 0 0 0 0 0 0 0 0 0 0 0 0 0 0 0 0 0 0 0 0
0 0 0 0 0 0 0 0 0 0 0 0 0 0 0 0 0 0 0 0 0 0 0 0 0 0 0 0 0 0 0 0 0 0 0 0 0 0 0 0 0 0 0 0 0
0 0 0 0 0 0 0 0 0 0 0 0 0 0 0 0 0 0 0 0 0 0 0 0 0 0 0 0 0 0 0 0 0 0 0 0 0 0 0 0 0 0 0 0 0
0 0 0 0 0 0 0 0 0 0 0 0 0 0 0 0 0 0 0 0 0 0 0 0 0 0 0 0 0 0 0 0 0 0 0 0 0 0 0 0 0 0 0 0 0
0 0 0 0 0 0 0 0 0 -0 -0 0 0 0 0 0 0 0 0 0 0 0 0 0 0 0 0 0 0 0 0 0 0 0 0 0 0 0 0 0 0 0 0 0 0
0 0 0 0 0 0 0 0 0 0 0 0 -0 0 0 0 0 0 0 0 0 0 0 0 0 0 0 0 0 0 0 0 0 0 0 0 0 0 0 0 0 0 0 0 0
0 0 0 0 0 0 0 0 0 0 0 0 -0 0 0 0 0 0 0 0 0 0 0 0 0 0 0 0 0 0 0 0 0 0 0 0 0 0 0 0 0 0 0 0 0
Wind_Speed_500mb
34 31 30 30 27 26 25 25 22 20 20 22 21 22 24 27 28 30 33 28 24 21 14 11 13 18 22 18 11 9 6 6 10 12 7 6 6 5 6 8 6 9 16 10 9
37 38 37 34 34 32 31 28 25 25 24 24 22 24 24 29 32 42 33 29 26 22 18 17 19 21 13 15 12 9 7 17 8 5 6 3 2 10 9 5 8 24 27 23 20
40 40 40 42 40 36 33 32 28 27 27 26 26 24 24 24 30 26 29 40 27 23 21 20 20 19 10 11 13 11 12 9 7 7 3 4 5 7 10 7 18 14 13 19 23
50 46 45 43 45 43 38 33 31 29 27 25 26 25 21 17 12 8 10 25 26 23 22 22 18 13 9 10 14 7 21 14 6 8 4 5 5 7 27 27 17 9 9 16 23
52 53 50 49 45 48 42 35 31 28 29 25 25 25 20 19 31 29 13 17 22 22 21 23 24 13 10 9 5 6 5 10 18 17 20 19 21 17 40 48 38 36 44 44 36
57 58 58 52 48 46 37 37 34 31 31 27 25 25 23 15 26 25 26 25 26 24 24 27 14 19 8 7 11 2 8 18 20 23 18 9 7 7 14 12 19 12 12 15 29
64 64 62 59 49 45 40 43 35 34 31 29 27 26 31 44 23 21 25 28 26 26 27 29 23 17 10 3 7 3 9 11 14 7 11 8 11 17 39 18 8 6 11 21 23
55 58 61 56 52 47 46 44 37 33 29 26 27 26 23 28 38 46 28 28 27 26 26 24 23 16 9 2 5 1 4 5 0 9 4 8 14 9 1 7 11 25 44 37 31
50 42 40 50 53 50 51 48 43 35 24 22 22 21 17 22 42 37 35 30 27 24 22 18 18 10 8 8 6 4 7 10 13 3 6 6 11 8 5 28 51 53 45 42 37
52 37 47 52 53 52 57 52 59 46 28 18 17 9 32 26 27 39 36 28 21 27 19 14 10 6 3 8 12 13 10 9 9 2 0 6 18 18 38 41 38 35 28 21 22
47 37 26 17 43 51 45 53 24 16 42 39 26 18 8 23 19 31 40 35 21 18 12 12 8 20 33 16 4 10 9 9 4 3 3 11 13 20 22 11 12 11 10 10 9
39 40 22 25 19 20 25 28 25 11 17 78 72 43 20 28 17 31 43 30 19 13 13 6 23 20 8 12 10 6 8 9 5 4 1 9 21 13 3 3 4 4 4 4 3
20 19 24 31 21 27 29 39 46 29 11 19 84 67 55 48 21 47 56 26 9 14 23 13 5 14 15 10 13 10 11 8 6 6 2 9 14 5 4 4 4 2 0 0 2
21 40 41 29 26 14 25 31 31 29 8 9 19 26 47 34 11 38 59 21 7 25 13 16 6 14 12 11 11 10 11 10 10 7 7 4 9 9 9 10 9 9 5 2 3
42 21 34 36 41 34 26 26 16 20 12 9 14 16 33 34 33 25 59 32 14 14 14 14 16 12 8 9 11 8 10 10 7 8 7 1 5 12 6 11 13 15 13 7 7
43 48 48 52 48 39 29 21 14 3 13 11 8 8 15 10 8 17 24 19 10 6 5 1 2 6 8 8 6 17 11 11 9 6 3 8 9 8 11 13 7 9 17 10 10
52 53 54 57 50 29 20 13 7 11 3 10 11 13 19 11 9 9 28 21 16 14 14 4 3 2 8 13 7 6 10 3 7 3 11 2 5 16 10 10 9 10 3 4 7
50 47 59 65 52 36 21 7 16 8 11 6 5 15 15 14 6 11 27 19 18 5 10 17 8 14 6 6 13 12 11 9 14 8 6 3 12 11 11 4 8 4 1 8 14
44 44 67 61 37 43 25 13 10 10 1 14 5 8 10 15 8 16 17 11 25 28 14 14 8 5 5 3 3 11 8 5 13 2 6 5 12 11 10 2 2 5 1 7 14
30 36 61 32 19 46 14 22 13 11 5 3 10 12 19 25 15 23 25 13 15 30 6 12 9 4 5 3 7 4 9 6 4 6 9 8 10 11 9 12 6 2 2 7 13
32 10 13 15 28 31 13 12 10 14 10 10 5 11 13 15 17 15 12 3 8 14 13 10 7 6 9 10 13 6 5 4 6 7 10 2 12 12 17 17 15 11 8 8 8
13 6 7 28 14 8 6 9 7 9 7 7 8 10 15 16 19 17 18 3 10 14 19 8 8 8 6 5 2 3 9 8 8 10 3 6 13 4 9 12 15 10 8 8 7
9 11 13 38 9 12 5 7 8 10 11 12 12 7 2 9 8 13 10 7 3 5 11 13 5 8 4 1 2 7 9 7 7 6 14 11 10 7 6 7 15 17 12 11 11
8 4 12 23 20 7 16 11 9 9 6 10 6 6 2 3 3 10 6 4 3 8 13 11 6 9 12 6 6 11 15 16 9 7 10 12 8 9 14 15 13 14 15 16 17
23 6 8 7 8 14 6 7 10 11 8 10 6 4 9 3 4 7 6 7 6 12 6 6 7 6 3 7 4 7 7 26 25 10 16 8 18 12 18 21 30 16 10 15 20
15 7 7 5 2 10 14 3 9 9 5 4 2 13 6 6 7 13 12 8 6 4 6 6 6 5 4 6 9 6 10 11 24 18 14 6 15 16 6 12 12 13 14 17 18
30 16 1 1 2 4 6 12 11 11 7 9 15 9 3 5 4 4 8 14 16 11 6 8 10 5 5 2 1 13 21 32 11 10 19 21 18 7 2 7 15 13 8 6 13
Wind_Direction_500mb
307 302 298 295 292 288 283 282 278 273 274 274 277 272 269 270 271 261 259 250 243 235 232 216 196 185 176 178 169 150 75 222 246 169 242 357 18 337 308 273 258 239 262 254 235
305 302 296 290 288 288 287 282 281 279 274 277 276 277 275 274 273 265 256 249 236 235 227 196 185 179 178 180 187 143 156 217 216 228 212 255 328 322 311 270 272 269 256 260 222
304 299 293 289 284 280 278 280 278 279 280 278 280 278 277 281 290 269 253 235 233 235 207 197 187 177 182 180 196 176 202 215 244 237 249 258 249 226 262 268 246 267 287 242 220
297 295 290 284 282 278 275 274 276 276 272 272 276 277 271 257 244 300 232 207 221 204 195 192 190 180 184 201 198 192 236 222 228 194 249 246 263 246 242 252 275 252 253 276 250
292 290 284 282 277 277 274 275 269 270 272 271 271 266 262 249 244 267 249 199 192 197 205 204 199 189 188 203 190 249 268 242 252 260 271 262 250 252 269 280 281 271 265 266 263
282 284 281 273 273 272 271 273 274 272 270 265 258 260 242 231 254 249 227 215 210 215 214 208 220 217 221 212 174 258 274 278 282 266 268 225 245 183 277 286 300 297 300 288 271
280 275 275 267 264 261 260 265 278 281 272 265 256 246 240 249 252 241 230 222 222 219 214 215 217 203 194 236 227 282 313 319 248 233 214 176 281 230 264 293 334 57 13 345 304
294 278 265 255 256 256 253 262 270 274 272 260 249 239 245 252 245 241 231 217 213 215 216 217 213 218 221 208 36 82 53 328 253 142 208 145 266 276 248 287 297 310 318 313 291
312 283 270 261 255 251 253 257 260 261 264 251 235 223 254 235 228 224 218 215 205 204 203 201 185 193 161 122 1 359 231 207 312 204 138 164 266 275 54 325 313 313 312 305 295
318 303 261 248 252 245 250 252 257 246 229 224 218 235 234 223 221 208 201 199 180 179 169 176 169 136 100 149 212 194 214 237 229 344 69 225 260 284 304 317 306 304 308 309 302
305 309 294 255 246 246 239 234 242 220 199 199 206 212 283 201 189 194 192 179 161 168 172 195 167 204 206 199 135 139 181 201 221 51 287 247 268 280 318 2 358 359 4 4 7
294 291 304 290 293 272 256 217 225 239 245 223 229 227 242 199 175 186 181 172 174 182 137 128 233 221 167 192 199 180 188 234 273 111 310 323 282 268 276 301 311 318 4 18 71
277 284 306 297 305 282 271 257 243 270 247 225 219 220 217 209 206 189 184 188 171 171 190 186 232 172 157 165 173 204 192 184 199 333 114 334 287 211 233 196 237 243 262 241 231
275 317 335 315 305 306 298 274 264 262 246 211 200 226 210 188 245 203 191 168 204 205 160 242 208 156 157 190 148 193 175 128 119 88 235 8 280 268 203 227 233 239 223 167 83
312 324 318 307 309 295 282 288 293 216 249 133 158 185 185 170 136 184 184 180 192 183 150 217 177 164 160 202 151 211 115 117 109 95 48 276 77 269 128 243 236 216 208 212 298
286 297 291 290 298 287 270 278 271 244 254 150 136 169 162 163 131 122 160 150 118 83 314 19 70 136 155 69 98 136 84 61 57 87 337 226 152 256 193 203 186 183 202 274 301
273 286 293 291 286 276 267 258 243 223 115 201 182 161 182 173 138 166 172 174 169 156 187 148 119 39 131 92 30 85 119 17 346 15 221 250 153 255 230 208 181 180 232 327 313
257 274 280 282 280 228 244 160 248 263 194 93 117 140 182 150 207 162 168 191 228 111 139 167 210 176 174 189 177 185 163 168 205 195 246 47 231 251 213 167 171 186 346 303 309
251 260 278 284 261 216 234 221 213 224 205 135 124 151 208 206 134 166 195 212 198 197 166 165 189 93 79 135 139 177 194 135 103 53 47 233 287 285 155 318 194 139 154 330 331
252 278 279 286 222 196 220 239 212 188 133 150 210 181 193 180 164 190 177 203 196 190 173 184 113 182 133 119 42 144 160 97 10 154 240 280 279 241 224 222 248 348 271 323 330
249 272 270 196 185 201 222 229 234 206 156 183 228 208 216 185 167 188 212 248 152 160 139 143 105 115 140 206 168 140 184 87 117 133 166 229 258 214 205 179 176 214 226 268 317
223 228 218 185 190 208 222 197 245 193 163 154 245 250 186 171 181 188 221 303 163 153 156 174 112 135 190 245 194 98 188 164 140 210 170 154 271 256 203 173 167 205 237 232 285
217 248 235 202 214 211 239 262 250 205 188 203 211 208 302 169 152 148 170 13 135 83 162 176 143 116 61 25 172 213 191 132 103 87 194 148 257 352 325 287 229 240 249 244 248
209 243 208 218 241 186 209 243 253 228 245 194 192 139 227 92 10 130 142 119 65 115 130 112 145 160 181 168 125 192 179 171 142 160 165 227 271 281 249 240 242 254 252 241 243
186 250 201 197 227 229 241 213 209 229 235 221 143 253 150 178 64 100 98 106 78 145 67 95 134 99 75 85 87 172 176 185 204 182 189 239 202 229 220 223 229 252 237 258 259
192 203 198 291 271 195 231 239 228 229 216 300 240 142 164 157 200 189 130 176 180 111 96 22 111 94 40 33 45 252 202 222 232 232 269 124 274 216 199 188 205 208 258 266 264
205 182 183 254 211 163 219 232 236 149 235 260 177 133 141 230 214 109 97 141 151 136 115 126 135 117 242 10 1 300 215 206 199 200 207 219 229 174 219 208 199 227 250 246 292
Wind_Speed_850mb
34 31 30 30 27 26 25 25 22 20 20 22 21 22 24 27 28 30 33 28 24 21 14 11 13 18 22 18 11 9 6 6 10 12 7 6 6 5 6 8 6 9 16 10 9
37 38 37 34 34 32 31 28 25 25 24 24 22 24 24 29 32 42 33 29 26 22 18 17 19 21 13 15 12 9 7 17 8 5 6 3 2 10 9 5 8 24 27 23 20
40 40 40 42 40 36 33 32 28 27 27 26 26 24 24 24 30 26 29 40 27 23 21 20 20 19 10 11 13 11 12 9 7 7 3 4 5 7 10 7 18 14 13 19 23
50 46 45 43 45 43 38 33 31 29 27 25 26 25 21 17 12 8 10 25 26 23 22 22 18 13 9 10 14 7 21 14 6 8 4 5 5 7 27 27 17 9 9 16 23
52 53 50 49 45 48 42 35 31 28 29 25 25 25 20 19 31 29 13 17 22 22 21 23 24 13 10 9 5 6 5 10 18 17 20 19 21 17 40 48 38 36 44 44 36
57 58 58 52 48 46 37 37 34 31 31 27 25 25 23 15 26 25 26 25 26 24 24 27 14 19 8 7 11 2 8 18 20 23 18 9 7 7 14 12 19 12 12 15 29
64 64 62 59 49 45 40 43 35 34 31 29 27 26 31 44 23 21 25 28 26 26 27 29 23 17 10 3 7 3 9 11 14 7 11 8 11 17 39 18 8 6 11 21 23
55 58 61 56 52 47 46 44 37 33 29 26 27 26 23 28 38 46 28 28 27 26 26 24 23 16 9 2 5 1 4 5 0 9 4 8 14 9 1 7 11 25 44 37 31
50 42 40 50 53 50 51 48 43 35 24 22 22 21 17 22 42 37 35 30 27 24 22 18 18 10 8 8 6 4 7 10 13 3 6 6 11 8 5 28 51 53 45 42 37
52 37 47 52 53 52 57 52 59 46 28 18 17 9 32 26 27 39 36 28 21 27 19 14 10 6 3 8 12 13 10 9 9 2 0 6 18 18 38 41 38 35 28 21 22
47 37 26 17 43 51 45 53 24 16 42 39 26 18 8 23 19 31 40 35 21 18 12 12 8 20 33 16 4 10 9 9 4 3 3 11 13 20 22 11 12 11 10 10 9
39 40 22 25 19 20 25 28 25 11 17 78 72 43 20 28 17 31 43 30 19 13 13 6 23 20 8 12 10 6 8 9 5 4 1 9 21 13 3 3 4 4 4 4 3
20 19 24 31 21 27 29 39 46 29 11 19 84 67 55 48 21 47 56 26 9 14 23 13 5 14 15 10 13 10 11 8 6 6 2 9 14 5 4 4 4 2 0 0 2
21 40 41 29 26 14 25 31 31 29 8 9 19 26 47 34 11 38 59 21 7 25 13 16 6 14 12 11 11 10 11 10 10 7 7 4 9 9 9 10 9 9 5 2 3
42 21 34 36 41 34 26 26 16 20 12 9 14 16 33 34 33 25 59 32 14 14 14 14 16 12 8 9 11 8 10 10 7 8 7 1 5 12 6 11 13 15 13 7 7
43 48 48 52 48 39 29 21 14 3 13 11 8 8 15 10 8 17 24 19 10 6 5 1 2 6 8 8 6 17 11 11 9 6 3 8 9 8 11 13 7 9 17 10 10
52 53 54 57 50 29 20 13 7 11 3 10 11 13 19 11 9 9 28 21 16 14 14 4 3 2 8 13 7 6 10 3 7 3 11 2 5 16 10 10 9 10 3 4 7
50 47 59 65 52 36 21 7 16 8 11 6 5 15 15 14 6 11 27 19 18 5 10 17 8 14 6 6 13 12 11 9 14 8 6 3 12 11 11 4 8 4 1 8 14
44 44 67 61 37 43 25 13 10 10 1 14 5 8 10 15 8 16 17 11 25 28 14 14 8 5 5 3 3 11 8 5 13 2 6 5 12 11 10 2 2 5 1 7 14
30 36 61 32 19 46 14 22 13 11 5 3 10 12 19 25 15 23 25 13 15 30 6 12 9 4 5 3 7 4 9 6 4 6 9 8 10 11 9 12 6 2 2 7 13
32 10 13 15 28 31 13 12 10 14 10 10 5 11 13 15 17 15 12 3 8 14 13 10 7 6 9 10 13 6 5 4 6 7 10 2 12 12 17 17 15 11 8 8 8
13 6 7 28 14 8 6 9 7 9 7 7 8 10 15 16 19 17 18 3 10 14 19 8 8 8 6 5 2 3 9 8 8 10 3 6 13 4 9 12 15 10 8 8 7
9 11 13 38 9 12 5 7 8 10 11 12 12 7 2 9 8 13 10 7 3 5 11 13 5 8 4 1 2 7 9 7 7 6 14 11 10 7 6 7 15 17 12 11 11
8 4 12 23 20 7 16 11 9 9 6 10 6 6 2 3 3 10 6 4 3 8 13 11 6 9 12 6 6 11 15 16 9 7 10 12 8 9 14 15 13 14 15 16 17
23 6 8 7 8 14 6 7 10 11 8 10 6 4 9 3 4 7 6 7 6 12 6 6 7 6 3 7 4 7 7 26 25 10 16 8 18 12 18 21 30 16 10 15 20
15 7 7 5 2 10 14 3 9 9 5 4 2 13 6 6 7 13 12 8 6 4 6 6 6 5 4 6 9 6 10 11 24 18 14 6 15 16 6 12 12 13 14 17 18
30 16 1 1 2 4 6 12 11 11 7 9 15 9 3 5 4 4 8 14 16 11 6 8 10 5 5 2 1 13 21 32 11 10 19 21 18 7 2 7 15 13 8 6 13
Wind_Direction_850mb
307 302 298 295 292 288 283 282 278 273 274 274 277 272 269 270 271 261 259 250 243 235 232 216 196 185 176 178 169 150 75 222 246 169 242 357 18 337 308 273 258 239 262 254 235
305 302 296 290 288 288 287 282 281 279 274 277 276 277 275 274 273 265 256 249 236 235 227 196 185 179 178 180 187 143 156 217 216 228 212 255 328 322 311 270 272 269 256 260 222
304 299 293 289 284 280 278 280 278 279 280 278 280 278 277 281 290 269 253 235 233 235 207 197 187 177 182 180 196 176 202 215 244 237 249 258 249 226 262 268 246 267 287 242 220
297 295 290 284 282 278 275 274 276 276 272 272 276 277 271 257 244 300 232 207 221 204 195 192 190 180 184 201 198 192 236 222 228 194 249 246 263 246 242 252 275 252 253 276 250
292 290 284 282 277 277 274 275 269 270 272 271 271 266 262 249 244 267 249 199 192 197 205 204 199 189 188 203 190 249 268 242 252 260 271 262 250 252 269 280 281 271 265 266 263
282 284 281 273 273 272 271 273 274 272 270 265 258 260 242 231 254 249 227 215 210 215 214 208 220 217 221 212 174 258 274 278 282 266 268 225 245 183 277 286 300 297 300 288 271
280 275 275 267 264 261 260 265 278 281 272 265 256 246 240 249 252 241 230 222 222 219 214 215 217 203 194 236 227 282 313 319 248 233 214 176 281 230 264 293 334 57 13 345 304
294 278 265 255 256 256 253 262 270 274 272 260 249 239 245 252 245 241 231 217 213 215 216 217 213 218 221 208 36 82 53 328 253 142 208 145 266 276 248 287 297 310 318 313 291
312 283 270 261 255 251 253 257 260 261 264 251 235 223 254 235 228 224 218 215 205 204 203 201 185 193 161 122 1 359 231 207 312 204 138 164 266 275 54 325 313 313 312 305 295
318 303 261 248 252 245 250 252 257 246 229 224 218 235 234 223 221 208 201 199 180 179 169 176 169 136 100 149 212 194 214 237 229 344 69 225 260 284 304 317 306 304 308 309 302
305 309 294 255 246 246 239 234 242 220 199 199 206 212 283 201 189 194 192 179 161 168 172 195 167 204 206 199 135 139 181 201 221 51 287 247 268 280 318 2 358 359 4 4 7
294 291 304 290 293 272 256 217 225 239 245 223 229 227 242 199 175 186 181 172 174 182 137 128 233 221 167 192 199 180 188 234 273 111 310 323 282 268 276 301 311 318 4 18 71
277 284 306 297 305 282 271 257 243 270 247 225 219 220 217 209 206 189 184 188 171 171 190 186 232 172 157 165 173 204 192 184 199 333 114 334 287 211 233 196 237 243 262 241 231
275 317 335 315 305 306 298 274 264 262 246 211 200 226 210 188 245 203 191 168 204 205 160 242 208 156 157 190 148 193 175 128 119 88 235 8 280 268 203 227 233 239 223 167 83
312 324 318 307 309 295 282 288 293 216 249 133 158 185 185 170 136 184 184 180 192 183 150 217 177 164 160 202 151 211 115 117 109 95 48 276 77 269 128 243 236 216 208 212 298
286 297 291 290 298 287 270 278 271 244 254 150 136 169 162 163 131 122 160 150 118 83 314 19 70 136 155 69 98 136 84 61 57 87 337 226 152 256 193 203 186 183 202 274 301
273 286 293 291 286 276 267 258 243 223 115 201 182 161 182 173 138 166 172 174 169 156 187 148 119 39 131 92 30 85 119 17 346 15 221 250 153 255 230 208 181 180 232 327 313
257 274 280 282 280 228 244 160 248 263 194 93 117 140 182 150 207 162 168 191 228 111 139 167 210 176 174 189 177 185 163 168 205 195 246 47 231 251 213 167 171 186 346 303 309
251 260 278 284 261 216 234 221 213 224 205 135 124 151 208 206 134 166 195 212 198 197 166 165 189 93 79 135 139 177 194 135 103 53 47 233 287 285 155 318 194 139 154 330 331
252 278 279 286 222 196 220 239 212 188 133 150 210 181 193 180 164 190 177 203 196 190 173 184 113 182 133 119 42 144 160 97 10 154 240 280 279 241 224 222 248 348 271 323 330
249 272 270 196 185 201 222 229 234 206 156 183 228 208 216 185 167 188 212 248 152 160 139 143 105 115 140 206 168 140 184 87 117 133 166 229 258 214 205 179 176 214 226 268 317
223 228 218 185 190 208 222 197 245 193 163 154 245 250 186 171 181 188 221 303 163 153 156 174 112 135 190 245 194 98 188 164 140 210 170 154 271 256 203 173 167 205 237 232 285
217 248 235 202 214 211 239 262 250 205 188 203 211 208 302 169 152 148 170 13 135 83 162 176 143 116 61 25 172 213 191 132 103 87 194 148 257 352 325 287 229 240 249 244 248
209 243 208 218 241 186 209 243 253 228 245 194 192 139 227 92 10 130 142 119 65 115 130 112 145 160 181 168 125 192 179 171 142 160 165 227 271 281 249 240 242 254 252 241 243
186 250 201 197 227 229 241 213 209 229 235 221 143 253 150 178 64 100 98 106 78 145 67 95 134 99 75 85 87 172 176 185 204 182 189 239 202 229 220 223 229 252 237 258 259
192 203 198 291 271 195 231 239 228 229 216 300 240 142 164 157 200 189 130 176 180 111 96 22 111 94 40 33 45 252 202 222 232 232 269 124 274 216 199 188 205 208 258 266 264
205 182 183 254 211 163 219 232 236 149 235 260 177 133 141 230 214 109 97 141 151 136 115 126 135 117 242 10 1 300 215 206 199 200 207 219 229 174 219 208 199 227 250 246 292